Wind_Speed
9 10 11 12 13 14 15 16 17 17 18 18 18 18 18 18 18 18 18 18 18 18 18 18 18 18 17 17 16 15 14 13 13 12 11 10 9 8 7 6 5 4 3
10 11 12 13 14 14 15 16 17 17 18 18 18 18 18 18 19 19 19 19 20 19 19 20 20 19 19 18 18 16 15 14 13 13 12 10 9 9 8 7 6 5 3
11 12 13 13 14 14 15 15 16 17 17 17 17 17 17 18 19 19 20 20 21 21 21 21 22 21 21 20 19 18 16 15 14 13 12 11 10 9 9 8 7 5 4
11 12 13 13 14 14 14 14 15 15 15 15 15 15 16 16 17 18 19 20 21 22 22 22 23 23 22 21 21 20 18 17 15 14 13 12 11 10 9 8 7 6 5
12 12 12 13 13 12 13 14 14 14 14 14 14 15 15 15 16 17 18 20 21 22 22 23 24 24 23 22 21 21 19 18 16 14 13 12 12 10 10 9 8 7 6
12 11 11 11 11 12 12 13 13 13 13 13 14 14 14 15 16 17 18 19 20 21 22 23 24 24 24 22 21 21 20 19 17 15 14 13 12 11 11 10 9 8 7
11 10 10 10 11 11 11 12 12 12 13 13 13 14 14 14 15 16 17 18 19 20 21 22 23 24 24 24 22 22 22 20 19 17 15 14 13 12 12 11 10 9 8
10 9 9 10 10 11 11 12 12 12 13 13 13 14 14 14 15 16 17 18 19 19 20 21 22 23 24 24 23 22 22 21 20 18 17 16 15 13 12 11 11 10 10
9 9 9 9 10 10 11 12 11 12 12 13 13 14 15 15 16 17 17 18 19 19 20 20 21 22 23 23 23 22 22 22 21 20 18 17 16 14 13 12 11 11 10
9 9 9 9 9 10 11 12 12 12 12 13 13 14 15 16 16 17 18 18 19 19 20 20 21 22 23 23 22 23 22 22 22 21 20 18 17 16 14 13 12 12 12
9 9 9 9 9 10 11 12 12 12 13 13 14 15 16 17 17 18 18 19 19 19 19 20 20 21 22 22 21 22 22 22 22 22 22 20 18 17 16 15 14 13 13
8 8 8 9 9 11 11 12 12 12 13 13 14 15 16 17 18 18 18 19 19 19 19 20 20 20 21 22 21 21 21 22 22 22 22 21 20 18 17 15 15 14 14
8 8 8 9 9 11 12 12 12 12 13 14 15 16 17 18 19 19 19 19 19 19 19 19 19 20 20 21 20 21 21 21 22 22 22 22 21 19 18 17 16 15 15
8 8 8 9 9 11 11 12 12 12 13 14 16 17 17 18 19 19 20 19 19 19 19 18 18 19 19 19 19 19 20 20 21 22 23 23 21 20 19 18 17 16 16
8 8 8 9 10 10 11 12 12 13 14 15 16 17 17 18 19 20 20 19 19 18 18 17 17 17 18 18 19 20 20 21 21 21 22 23 22 21 19 18 18 18 17
8 8 8 9 10 10 10 11 11 12 14 15 16 17 18 18 19 19 19 19 18 18 17 17 16 17 17 18 19 19 20 21 22 22 22 22 23 22 21 19 19 18 18
8 8 8 9 9 10 10 11 12 13 14 15 16 17 18 19 19 19 19 18 18 17 17 16 16 16 17 18 19 19 20 21 21 21 22 22 22 23 21 20 19 19 18
9 8 9 9 9 10 10 11 12 13 14 16 16 17 18 18 19 19 18 18 18 17 16 15 15 15 16 17 18 19 20 21 21 21 22 22 22 23 23 22 20 20 19
9 9 9 9 9 9 10 11 12 13 15 16 17 17 17 18 19 18 18 18 18 17 15 14 13 13 14 15 17 19 20 20 21 21 22 23 23 24 23 23 21 20 19
9 9 9 8 9 9 10 11 12 13 15 16 16 17 17 18 18 18 18 17 17 16 14 13 12 11 12 13 15 17 19 20 20 21 22 24 25 25 23 22 22 21 20
9 10 9 8 9 9 9 11 12 14 15 16 16 16 17 18 18 17 17 17 16 15 13 11 10 9 10 11 14 16 17 19 20 21 23 24 26 25 24 22 22 22 20
9 10 10 9 9 9 10 11 12 14 14 15 16 16 17 17 17 17 16 16 15 15 13 11 9 7 8 10 12 15 16 18 18 20 22 23 24 25 24 24 22 22 21
9 10 10 9 9 9 10 11 12 13 14 15 16 16 17 17 16 16 16 16 15 14 12 11 7 5 5 7 10 13 15 17 17 19 21 22 24 25 25 24 24 24 23
9 9 10 9 9 9 10 11 12 13 13 14 15 16 16 16 16 15 15 15 14 13 12 11 7 3 2 5 9 11 14 15 16 18 20 21 23 23 24 25 23 23 23
9 9 10 9 9 9 10 11 12 12 13 14 15 15 16 16 15 15 14 14 13 12 11 10 7 3 0 4 7 10 12 12 15 17 19 20 21 22 23 24 23 22 22
9 9 10 10 10 10 10 11 11 12 13 14 15 15 15 15 15 14 13 13 12 12 10 9 7 4 1 3 6 9 10 12 14 15 17 18 19 20 22 23 23 22 22
Wind_Direction
298 302 304 304 304 305 307 307 307 307 305 303 300 297 294 291 288 285 282 280 278 276 274 272 271 271 271 271 271 273 271 271 272 274 274 271 270 270 273 275 279 292 297
299 302 303 304 304 305 306 306 307 307 306 304 302 299 297 293 289 286 284 282 278 276 276 274 272 272 271 269 269 270 269 268 267 268 268 267 266 265 265 265 266 270 269
300 302 305 305 304 305 306 307 307 307 308 307 306 303 301 297 293 290 285 283 280 277 275 274 273 272 270 269 266 265 265 264 262 263 263 262 264 263 261 259 257 255 253
303 304 305 304 305 307 308 309 310 311 311 311 310 308 305 302 298 293 288 284 283 279 277 274 274 271 269 268 265 262 261 261 258 258 259 260 261 260 258 253 249 245 242
307 305 305 305 307 310 311 313 315 316 316 315 315 313 309 306 302 298 293 288 285 281 278 274 273 272 268 266 264 261 258 258 255 255 256 258 258 256 252 246 241 238 235
306 305 306 308 311 314 316 318 319 318 319 319 317 315 312 308 304 301 298 294 289 284 279 275 271 270 267 264 262 259 257 254 252 252 251 252 254 252 247 242 237 233 227
304 305 306 310 314 316 318 319 319 319 319 320 319 317 314 312 308 304 300 297 292 287 280 276 271 268 266 263 260 256 254 253 249 247 247 248 250 249 244 239 234 229 221
305 304 305 309 313 316 319 320 321 321 320 320 320 318 316 314 311 307 303 298 294 290 284 277 271 266 264 261 258 254 250 248 247 244 244 245 246 246 240 234 230 228 218
308 306 305 310 316 319 321 322 322 321 320 321 321 319 317 315 312 308 304 300 296 291 286 280 274 267 262 259 255 251 249 245 242 242 241 241 241 240 235 230 227 226 217
311 311 309 314 318 320 322 323 322 323 322 322 321 319 317 315 313 309 306 301 297 292 287 282 275 266 262 257 252 248 245 243 239 239 237 237 237 235 231 228 226 223 215
312 313 314 317 321 324 325 323 322 323 321 320 320 319 319 317 314 311 307 303 298 294 288 283 276 267 261 257 252 246 242 241 238 237 234 233 233 231 227 224 224 221 213
311 313 316 320 325 327 325 322 322 322 320 319 318 319 319 318 316 313 308 305 300 295 289 282 276 269 261 255 250 245 242 239 236 233 230 227 227 226 223 220 219 217 210
308 310 313 318 322 322 322 320 319 320 319 319 319 319 319 319 318 315 311 307 302 296 290 284 276 269 262 255 250 243 240 236 233 231 228 225 222 221 219 217 216 214 209
304 305 306 310 315 318 319 319 319 321 320 320 320 321 321 321 320 318 313 309 304 299 292 285 277 268 260 254 248 242 237 234 231 229 225 222 219 217 216 216 215 212 209
298 300 303 309 313 316 318 318 321 323 322 322 322 322 321 322 322 320 316 312 307 301 294 286 278 266 257 250 245 241 236 233 230 226 222 219 217 215 215 214 212 209 207
293 296 302 306 310 313 316 320 324 325 324 324 323 323 323 324 325 323 320 316 311 304 296 287 278 266 256 247 242 238 234 232 227 223 219 216 216 214 213 211 210 206 207
291 295 299 302 306 311 317 321 325 328 328 327 325 325 325 327 327 326 323 319 314 308 300 291 279 268 256 246 239 235 232 228 226 220 218 215 213 211 211 209 210 207 207
290 295 298 303 307 312 317 322 327 330 331 329 327 326 328 329 330 328 326 323 320 313 304 294 282 269 256 245 237 232 228 224 221 217 217 215 212 211 210 210 211 209 207
292 296 301 304 308 310 315 321 328 330 331 330 329 328 330 331 332 331 330 328 325 318 309 300 288 272 255 243 234 228 225 221 218 216 214 212 208 208 208 209 211 210 207
293 297 304 306 308 311 315 321 327 330 332 332 331 330 332 333 334 334 334 332 330 324 316 306 294 276 255 240 231 224 220 217 215 214 212 210 207 207 207 209 209 209 206
290 296 303 307 308 311 317 323 327 331 333 333 333 332 333 335 337 337 337 337 336 332 326 314 299 279 253 236 225 218 214 213 214 213 210 207 206 206 207 208 209 209 207
289 296 302 305 307 313 319 324 329 331 332 333 334 334 334 336 338 339 339 341 341 340 337 328 307 283 249 229 219 213 209 206 208 209 208 204 204 205 208 208 209 209 207
292 295 300 303 307 314 319 324 329 332 333 334 335 336 337 340 340 342 343 344 344 346 346 342 326 292 241 222 212 206 205 205 205 204 203 202 204 205 207 207 209 210 208
294 297 301 303 308 314 320 325 329 332 333 335 337 338 339 341 342 344 345 347 349 350 352 354 349 326 241 205 198 199 198 199 201 202 202 201 202 205 207 206 207 207 208
297 299 303 305 308 312 318 324 327 329 332 335 338 340 341 342 345 345 348 351 353 356 358 2 3 2 263 185 187 190 191 195 198 201 201 201 203 204 204 205 206 207 211
300 302 304 306 310 312 316 319 322 326 331 335 338 341 342 344 347 348 351 355 358 1 1 6 14 25 69 158 181 188 193 196 197 199 200 200 205 206 205 206 207 210 212
Height
5876 5876 5875 5874 5873 5872 5871 5870 5869 5868 5867 5866 5865 5864 5863 5863 5863 5863 5863 5863 5863 5864 5864 5865 5865 5866 5867 5868 5869 5870 5870 5871 5872 5873 5874 5875 5875 5876 5877 5878 5879 5879 5880
5875 5874 5873 5873 5872 5871 5869 5868 5867 5866 5865 5863 5862 5861 5861 5860 5860 5860 5859 5860 5860 5860 5861 5861 5862 5863 5863 5864 5866 5867 5868 5869 5870 5871 5872 5873 5874 5875 5876 5877 5878 5878 5879
5873 5872 5871 5871 5870 5869 5868 5866 5865 5864 5862 5861 5860 5859 5858 5857 5857 5856 5856 5856 5856 5856 5857 5858 5858 5859 5860 5861 5862 5864 5865 5866 5867 5869 5870 5871 5872 5873 5874 5875 5876 5877 5878
5871 5870 5870 5869 5868 5867 5866 5864 5863 5861 5860 5859 5857 5856 5855 5854 5854 5853 5853 5852 5852 5853 5853 5854 5854 5855 5856 5857 5858 5860 5862 5863 5864 5866 5867 5869 5870 5871 5872 5873 5875 5876 5877
5869 5868 5868 5867 5866 5865 5864 5862 5861 5860 5858 5857 5855 5854 5853 5852 5851 5850 5849 5849 5849 5848 5849 5849 5850 5850 5851 5853 5854 5856 5858 5860 5861 5863 5865 5866 5868 5869 5870 5872 5873 5874 5875
5867 5867 5866 5865 5864 5863 5862 5860 5859 5858 5856 5855 5853 5852 5851 5849 5848 5847 5846 5845 5845 5844 5845 5845 5845 5846 5847 5848 5850 5852 5854 5856 5858 5860 5862 5864 5865 5867 5868 5870 5871 5872 5874
5866 5865 5864 5863 5862 5861 5860 5859 5857 5856 5855 5853 5851 5850 5848 5847 5846 5845 5843 5842 5841 5841 5840 5840 5841 5841 5842 5843 5845 5848 5850 5852 5854 5857 5859 5861 5863 5864 5866 5868 5869 5871 5872
5864 5863 5863 5862 5861 5860 5858 5857 5856 5854 5853 5851 5849 5848 5846 5845 5843 5842 5840 5839 5838 5837 5836 5836 5836 5836 5837 5839 5841 5843 5845 5848 5850 5853 5855 5858 5860 5862 5864 5865 5867 5869 5870
5862 5862 5861 5860 5859 5858 5857 5855 5854 5852 5851 5849 5847 5846 5844 5842 5840 5839 5837 5835 5834 5833 5832 5831 5831 5831 5832 5834 5836 5838 5840 5843 5846 5849 5852 5854 5857 5859 5861 5863 5865 5867 5868
5861 5860 5860 5859 5857 5856 5855 5854 5852 5850 5849 5847 5845 5844 5842 5840 5838 5835 5833 5832 5830 5828 5827 5826 5826 5827 5827 5829 5831 5833 5836 5838 5841 5845 5848 5851 5853 5856 5858 5860 5862 5864 5866
5860 5859 5858 5857 5856 5854 5853 5852 5850 5848 5847 5845 5843 5841 5839 5837 5835 5832 5830 5828 5826 5824 5823 5822 5821 5821 5823 5824 5826 5828 5831 5834 5837 5840 5843 5847 5850 5852 5855 5858 5860 5862 5864
5858 5857 5856 5856 5854 5853 5851 5850 5848 5846 5845 5843 5841 5839 5836 5834 5831 5829 5826 5824 5822 5820 5818 5817 5817 5817 5818 5819 5821 5823 5826 5829 5832 5835 5839 5842 5846 5849 5852 5855 5857 5860 5862
5857 5856 5855 5854 5853 5851 5850 5848 5847 5845 5843 5841 5839 5836 5834 5831 5828 5825 5822 5820 5817 5815 5814 5813 5812 5812 5813 5814 5816 5819 5821 5825 5828 5831 5834 5838 5842 5845 5849 5852 5855 5857 5860
5855 5854 5853 5852 5851 5850 5848 5847 5845 5843 5841 5839 5836 5834 5831 5828 5825 5822 5819 5816 5813 5811 5809 5808 5807 5807 5808 5810 5812 5814 5817 5820 5823 5826 5830 5834 5838 5842 5845 5849 5852 5855 5858
5854 5853 5852 5851 5850 5848 5847 5845 5843 5841 5839 5836 5834 5831 5828 5825 5822 5818 5815 5812 5809 5806 5804 5803 5803 5803 5803 5805 5807 5810 5812 5815 5819 5822 5826 5830 5834 5839 5842 5846 5849 5852 5855
5852 5851 5850 5849 5848 5846 5845 5843 5841 5839 5837 5834 5831 5829 5825 5822 5818 5815 5811 5808 5805 5802 5800 5799 5798 5798 5799 5800 5802 5805 5808 5811 5814 5818 5822 5826 5830 5835 5839 5842 5846 5849 5853
5850 5850 5848 5847 5846 5844 5843 5841 5839 5837 5834 5832 5829 5826 5822 5819 5815 5811 5808 5804 5801 5798 5796 5794 5793 5793 5794 5796 5798 5800 5803 5807 5810 5814 5818 5822 5827 5831 5835 5839 5843 5847 5850
5848 5848 5847 5845 5844 5842 5841 5839 5837 5835 5832 5829 5826 5823 5820 5816 5812 5808 5805 5801 5798 5794 5792 5790 5789 5789 5789 5791 5793 5796 5799 5803 5806 5810 5814 5819 5823 5827 5832 5836 5840 5844 5847
5846 5845 5844 5843 5842 5840 5839 5837 5835 5832 5830 5827 5824 5821 5817 5813 5810 5806 5802 5798 5794 5791 5788 5786 5785 5785 5785 5787 5789 5792 5795 5799 5803 5807 5811 5815 5819 5824 5829 5833 5837 5841 5845
5844 5843 5842 5841 5840 5838 5837 5835 5833 5830 5828 5825 5822 5818 5815 5811 5807 5803 5799 5796 5792 5788 5785 5783 5782 5781 5781 5783 5785 5788 5792 5795 5799 5803 5807 5812 5816 5821 5825 5830 5834 5838 5842
5842 5841 5840 5839 5838 5836 5835 5833 5831 5828 5826 5823 5820 5816 5813 5809 5805 5801 5797 5793 5790 5786 5783 5780 5779 5778 5779 5780 5782 5785 5788 5792 5796 5800 5804 5808 5813 5818 5823 5827 5832 5835 5839
5841 5839 5838 5837 5836 5835 5833 5831 5829 5826 5824 5821 5818 5815 5811 5807 5804 5800 5796 5792 5788 5784 5781 5779 5777 5776 5776 5777 5780 5782 5786 5790 5793 5797 5801 5805 5810 5815 5820 5824 5828 5832 5836
5839 5838 5837 5835 5834 5833 5831 5829 5827 5825 5822 5820 5817 5813 5810 5806 5802 5798 5795 5791 5787 5784 5780 5778 5776 5775 5775 5776 5778 5781 5784 5788 5791 5795 5799 5803 5807 5812 5816 5821 5825 5829 5833
5837 5836 5835 5833 5832 5831 5829 5827 5825 5823 5821 5818 5815 5812 5808 5805 5801 5797 5794 5790 5786 5783 5780 5777 5775 5774 5775 5775 5777 5780 5783 5786 5790 5793 5797 5800 5805 5809 5813 5818 5822 5826 5830
5835 5834 5832 5831 5830 5829 5827 5826 5824 5822 5820 5817 5814 5811 5807 5804 5800 5797 5793 5790 5786 5783 5780 5778 5776 5775 5775 5776 5777 5780 5782 5785 5788 5791 5795 5799 5803 5807 5811 5815 5819 5823 5828
5833 5832 5830 5829 5828 5827 5825 5824 5822 5820 5818 5816 5813 5810 5807 5803 5800 5796 5793 5790 5786 5783 5781 5779 5777 5776 5776 5777 5778 5780 5782 5784 5787 5790 5793 5796 5800 5804 5808 5812 5816 5820 5824